Content
SEND FEEDBACK

Daily
Averages
Monthly
Summary
United States of America

DELAND, FLORIDA


Home > North America > United States > Florida
Elevation: 34 feet     Latitude: 29 01N     Longitude: 081 18W

WEATHER
 
SELECT A DAY
Number of Records: 50,734;   Date Range: 2/9/12 - 7/21/14
 
SHARE

PRINT THIS DATA

[ ← Previous Day ]
WEATHER ALMANAC - JANUARY 31, 2013
[ Next Day → ]
[ °C ]   °F
Weather ElementAverageHighLow
Temperature55.8 °F71.6 °F (12:35 am)44.6 °F (10:35 pm)
Dewpoint38.3 °F64.4 °F (1:15 am)26.6 °F (3:35 pm)
Humidity55.4 %94 % (2:15 am)26 % (3:35 pm)
Barometer30.13 in30.26 in (10:55 pm)29.89 in (12:35 am)
Wind Speed7.6 mph19.6 mph (2:35 am)
Wind Gust26.5 mph (2:35 am)
Weather ElementAverage
Wind DirectionWSW (233.2 °)

Weather ElementTotal
Precipitation---
Heating Degree Days6.9 (Base 65)
Growing Degree Days8.1 (Base 50)
Averaged from 68 records on January 31, 2013
WEATHER CONDITIONS BREAKOUT
WIND DIRECTION BREAKOUT
WEATHER BY HOUR - JANUARY 31, 2013
[ °C ]   °F
Local TimeTemperatureDewpointHumidityBarometerVisibilityWind DirectionWind SpeedGust SpeedPrecipitationEventsConditions
12:35 AM71.6 °F62.6 °F73 %29.89 inSouth (190°)13.8 mph18.4 mphClear
1:15 AM71.6 °F64.4 °F78 %29.94 inWSW (240°)16.1 mph21.9 mphOvercast
1:35 AM64.4 °F60.8 °F88 %29.96 inWest (280°)16.1 mph23.0 mph
1:55 AM62.6 °F59.0 °F88 %29.97 inWest (270°)11.5 mph21.9 mph
2:15 AM60.8 °F59.0 °F94 %29.98 inWest (270°)11.5 mph16.1 mph
2:35 AM57.2 °F55.4 °F94 %30.00 inWNW (290°)19.6 mph26.5 mph
2:55 AM53.6 °F50.0 °F88 %30.01 inWest (280°)6.9 mph
3:15 AM53.6 °F50.0 °F88 %30.01 inWest (270°)5.8 mph
3:35 AM53.6 °F50.0 °F88 %30.00 inWNW (290°)5.8 mph
3:55 AM55.4 °F50.0 °F82 %30.01 inWest (270°)5.8 mphOvercast
4:15 AM55.4 °F51.8 °F88 %30.01 inWSW (250°)5.8 mph
4:35 AM55.4 °F50.0 °F82 %30.01 inWSW (250°)6.9 mphPartly Cloudy
4:55 AM55.4 °F50.0 °F82 %30.02 inWest (270°)9.2 mphPartly Cloudy
5:15 AM57.2 °F48.2 °F72 %30.02 inWest (280°)9.2 mph16.1 mphScattered Clouds
5:35 AM57.2 °F46.4 °F67 %30.03 inWNW (290°)9.2 mphMostly Cloudy
6:15 AM55.4 °F46.4 °F72 %30.05 inWNW (290°)8.1 mphMostly Cloudy
6:35 AM55.4 °F44.6 °F67 %30.06 inWNW (290°)9.2 mphPartly Cloudy
6:55 AM55.4 °F44.6 °F67 %30.08 inWNW (290°)8.1 mphClear
7:15 AM53.6 °F44.6 °F72 %30.08 inWNW (290°)6.9 mphClear
7:35 AM53.6 °F44.6 °F72 %30.10 inWNW (290°)8.1 mphClear
7:55 AM53.6 °F44.6 °F72 %30.10 inWest (280°)6.9 mphClear
8:15 AM55.4 °F44.6 °F67 %30.11 inWNW (290°)10.4 mphClear
8:35 AM55.4 °F42.8 °F63 %30.12 inNW (320°)13.8 mphClear
8:55 AM55.4 °F42.8 °F63 %30.13 inNW (320°)15.0 mph19.6 mphClear
9:15 AM55.4 °F42.8 °F63 %30.14 inWNW (290°)12.7 mph20.7 mphClear
9:35 AM55.4 °F42.8 °F63 %30.14 inNW (310°)12.7 mph18.4 mphClear
9:55 AM55.4 °F41.0 °F58 %30.15 inNW (310°)11.5 mph19.6 mphClear
10:15 AM55.4 °F35.6 °F47 %30.16 inNW (320°)11.5 mph18.4 mphClear
10:35 AM57.2 °F35.6 °F44 %30.17 inNW (310°)11.5 mph16.1 mphClear
10:55 AM57.2 °F33.8 °F41 %30.17 inNNW (340°)8.1 mphClear
11:15 AM57.2 °F35.6 °F44 %30.17 inNW (320°)11.5 mphClear
11:35 AM57.2 °F33.8 °F41 %30.17 inNW (320°)12.7 mphClear
11:55 AM57.2 °F35.6 °F44 %30.16 inWest (280°)10.4 mphClear
12:15 PM59.0 °F35.6 °F42 %30.16 inNW (320°)12.7 mph17.3 mphClear
12:55 PM59.0 °F32.0 °F36 %30.15 inNW (310°)5.8 mph16.1 mphClear
1:15 PM59.0 °F32.0 °F36 %30.15 inWNW (290°)9.2 mph18.4 mphClear
1:35 PM60.8 °F32.0 °F34 %30.15 inWNW (290°)12.7 mph20.7 mphClear
1:55 PM60.8 °F32.0 °F34 %30.14 inNW (310°)5.8 mphClear
2:15 PM60.8 °F32.0 °F34 %30.14 inNW (320°)15.0 mph18.4 mphClear
2:35 PM60.8 °F32.0 °F34 %30.15 inWest (280°)8.1 mph18.4 mphClear
2:55 PM62.6 °F30.2 °F30 %30.15 inWNW (300°)8.1 mphClear
3:15 PM62.6 °F28.4 °F27 %30.14 inWest (270°)10.4 mphClear
3:35 PM62.6 °F26.6 °F26 %30.15 inNW (310°)11.5 mph18.4 mphClear
3:55 PM62.6 °F28.4 °F27 %30.15 inWest (280°)6.9 mphClear
4:15 PM62.6 °F26.6 °F26 %30.15 inNW (320°)9.2 mphClear
4:35 PM62.6 °F26.6 °F26 %30.15 inNW (310°)10.4 mphClear
4:55 PM60.8 °F26.6 °F27 %30.16 inNW (320°)9.2 mphClear
5:15 PM60.8 °F26.6 °F27 %30.16 inWNW (290°)8.1 mphClear
5:35 PM59.0 °F28.4 °F31 %30.16 inNW (320°)8.1 mphClear
5:55 PM57.2 °F28.4 °F33 %30.17 inCalmClear
6:15 PM55.4 °F30.2 °F38 %30.17 inCalmClear
6:35 PM55.4 °F30.2 °F38 %30.18 inCalmClear
6:55 PM53.6 °F30.2 °F41 %30.19 inCalmClear
7:15 PM51.8 °F32.0 °F47 %30.20 inCalmClear
7:35 PM48.2 °F32.0 °F54 %30.21 inNW (320°)5.8 mphClear
7:55 PM51.8 °F30.2 °F44 %30.22 inCalmClear
8:15 PM51.8 °F30.2 °F44 %30.22 inCalmClear
8:35 PM48.2 °F32.0 °F54 %30.23 inCalmClear
8:55 PM48.2 °F32.0 °F54 %30.23 inCalmClear
9:15 PM46.4 °F32.0 °F57 %30.24 inCalmClear
9:35 PM46.4 °F32.0 °F57 %30.24 inNW (320°)4.6 mphClear
9:55 PM46.4 °F30.2 °F53 %30.24 inCalmClear
10:15 PM46.4 °F30.2 °F53 %30.25 inCalmClear
10:35 PM44.6 °F32.0 °F61 %30.25 inNW (320°)4.6 mphClear
10:55 PM44.6 °F30.2 °F57 %30.26 inNW (310°)5.8 mphClear
11:15 PM44.6 °F30.2 °F57 %30.25 inCalmClear
11:35 PM44.6 °F30.2 °F57 %30.26 inWNW (300°)4.6 mphClear
11:55 PM44.6 °F30.2 °F57 %30.26 inCalmClear
Hourly data recorded from KDED, located miles away from Deland, Florida







STORIES FROM OUR PARTNERS